FENGYUN 1C DEB, 31674

Orbit data source: Space-Track

FENGYUN 1C DEB, 31674 is space debris in SSO originally from a launch on Mon, 10 May 1999 UTC launched from the Taiyaun Space Center, China (TSC). Fengyun 1C debris stems from the Chinese weather satellite Fengyun-1C, which was intentionally destroyed by a Chinese anti-satellite missile in 2007. This event dramatically increased the amount of space debris, with thousands of trackable fragments posing hazards to satellites and human spaceflight. The Fengyun 1C debris cloud has become a focal point in discussions about space sustainability and the need for international regulations to prevent the creation of new debris.

Loading next visibility...
Identifier
31674, 1999-025CCG
Orbit
SSO
Country
Flag of CNCN / PRC
Related business
Manufacturer
Unknown
Mission
Spacecraft
Bus & Motor
Unknown
Mass
Unknown
Launch date (UTC)
1999-05-10 (27 years ago)
Launch vehicle
Unknown
Launch site
Taiyaun Space Center, China (TSC)
Object type
Payload
Rocket body
Debris
Shape & HBR
Unknown shape, 0.1 m
Radar Cross Section
Small (<0.1 m²)

Expand to show TLE details & history
Last TLE update: 3 days ago

TLE from 3 days ago
0 FENGYUN 1C DEB
1 31674U 99025CCG 26167.38715488  .00007899  00000-0  18017-2 0  9994
2 31674  98.9181 220.8306 0024978  90.2700 270.1358 14.55898332673121
Epoch: 2026-06-16T09:17Z
TLE epoch observation values (Epoch: 2026-06-16T09:17:30.181Z)
Latitude
-0.00002°
Longitude
176.79493°
Altitude
709.408 km
Speed
7.501 km/s
True Right ascension
14h 43m 19s
True Declination
0° 00' 00"
Sunlit
Object was in full shadow at epoch
Visualization orbit readout
Latitude
Unknown
Longitude
Unknown
Altitude
Unknown
Speed
Unknown
Apparent Right ascension
Unknown
Apparent Declination
Unknown
Sunlit
N/A
Visualization observer readout
Local Sidereal Time
10:30:42
Azimuth
Unknown
Elevation
Unknown
Doppler factor
Unknown
Orbital elements
Apogee altitude
721.259 km
Perigee altitude
685.881 km
Semi-major axis
7,081.707 km
Eccentricity
0.0025
Inclination
98.9181°
RAAN
220.8306°
Arg. of periapsis
90.27°
True anomaly
269.84957°
Mean anomaly
270.1358°
Eccentric anomaly
269.99269°
Mean motion
3.64197 °/min
Orbital period
98.85 mins
BSTAR
0.0018017
Loading maneuver chart data...
Computing Atmospheric mass density...

Documentation

Showing up to 5 results
|